KJ4AJP Weather Reports


time (UTC)temp
F
wind
direction
speed
knots
gust
knots
rain 1hr
in
rain 24hr
in
rain mn
in
humidity
%
barometer
mb
20260507195741 69 324 1.7 2.6 0.00 0.00 0.00 38 1015.8
20260507195239 69 137 1.7 1.7 0.00 0.00 0.00 35 1015.7
20260507194736 69 65 0.9 1.7 0.00 0.00 0.00 37 1015.7
20260507194232 70 47 0.0 0.9 0.00 0.00 0.00 37 1015.9
20260507193729 70 32 0.9 0.9 0.00 0.00 0.00 41 1016.0
20260507193226 70 82 0.9 0.9 0.00 0.00 0.00 36 1015.8
20260507192722 70 41 0.9 1.7 0.00 0.00 0.00 39 1015.9
20260507192219 70 1 0.9 1.7 0.00 0.00 0.00 36 1016.0
20260507191714 70 55 0.0 0.9 0.00 0.00 0.00 39 1016.4
20260507191212 70 41 0.0 0.9 0.00 0.00 0.00 43 1016.3
20260507190708 69 35 0.9 0.9 0.00 0.00 0.00 42 1016.4
20260507190207 68 32 0.9 0.9 0.00 0.00 0.00 40 1016.3
20260507185705 69 41 0.9 0.9 0.00 0.00 0.00 38 1016.3
20260507185202 69 42 0.9 0.9 0.00 0.00 0.00 41 1016.3
20260507184659 68 55 0.9 0.9 0.00 0.00 0.00 40 1016.5
20260507184157 68 10 1.7 2.6 0.00 0.00 0.00 38 1016.5
20260507183653 69 235 2.6 2.6 0.00 0.00 0.00 37 1016.6
20260507183150 69 85 0.9 0.9 0.00 0.00 0.00 40 1016.4
20260507182648 68 53 0.0 0.9 0.00 0.00 0.00 44 1016.3
20260507182143 68 45 0.9 0.9 0.00 0.00 0.00 46 1016.5
20260507181640 68 317 1.7 1.7 0.00 0.00 0.00 41 1016.7
20260507181136 68 33 0.9 0.9 0.00 0.00 0.00 37 1016.9
20260507180632 67 41 1.7 1.7 0.00 0.00 0.00 41 1016.8
20260507180130 68 38 1.7 1.7 0.00 0.00 0.00 42 1016.7
20260507175625 67 33 0.9 0.9 0.00 0.00 0.00 42 1016.8
20260507175123 67 29 0.0 0.9 0.00 0.00 0.00 37 1016.9
20260507174620 67 62 0.9 1.7 0.00 0.00 0.00 37 1017.0
20260507174118 67 243 1.7 1.7 0.00 0.00 0.00 41 1016.9
20260507173615 67 52 0.0 0.0 0.00 0.00 0.00 42 1016.9
20260507173112 68 57 0.0 0.9 0.00 0.00 0.00 40 1017.0
20260507172607 68 77 0.9 0.9 0.00 0.00 0.00 38 1017.2
20260507172106 67 45 0.9 0.9 0.00 0.00 0.00 45 1017.1
20260507171600 68 63 0.0 0.9 0.00 0.00 0.00 38 1017.2
20260507171057 67 27 0.0 0.9 0.00 0.00 0.00 42 1017.2
20260507170554 66 17 0.9 0.9 0.00 0.00 0.00 40 1017.4
20260507170051 66 353 1.7 2.6 0.00 0.00 0.00 43 1017.5
20260507165547 67 22 2.6 3.5 0.00 0.00 0.00 43 1017.5
20260507165044 67 31 1.7 1.7 0.00 0.00 0.00 44 1017.5
20260507164540 67 54 0.0 0.0 0.00 0.00 0.00 39 1017.5
20260507164037 67 54 0.0 0.9 0.00 0.00 0.00 47 1017.5
20260507163534 66 11 1.7 1.7 0.00 0.00 0.00 43 1017.5
20260507163032 66 52 0.0 0.0 0.00 0.00 0.00 45 1017.5
20260507162526 66 44 0.9 0.9 0.00 0.00 0.00 45 1017.6
20260507162024 66 201 1.7 1.7 0.00 0.00 0.00 43 1017.8
20260507161520 66 43 1.7 2.6 0.00 0.00 0.00 42 1017.7
20260507161017 66 29 0.9 1.7 0.00 0.00 0.00 45 1017.7
20260507160513 65 45 0.0 0.9 0.00 0.00 0.00 45 1017.7
20260507160010 66 67 0.9 0.9 0.00 0.00 0.00 42 1017.8
20260507155505 65 61 0.0 0.9 0.00 0.00 0.00 42 1018.0
20260507155002 65 48 0.0 0.0 0.00 0.00 0.00 43 1017.9
20260507154459 66 53 0.0 0.0 0.00 0.00 0.00 45 1017.8
20260507153956 66 57 0.0 0.0 0.00 0.00 0.00 46 1018.0
20260507153453 65 58 0.0 0.0 0.00 0.00 0.00 45 1017.8
20260507152949 64 63 0.0 0.0 0.00 0.00 0.00 43 1017.9
20260507152445 64 85 0.9 0.9 0.00 0.00 0.00 46 1017.9
20260507151941 63 42 0.9 0.9 0.00 0.00 0.00 50 1017.7
20260507151438 63 44 0.9 0.9 0.00 0.00 0.00 53 1017.8
20260507150934 63 27 0.9 1.7 0.00 0.00 0.00 50 1017.7
20260507150432 63 73 1.7 1.7 0.00 0.00 0.00 48 1017.7
20260507145928 63 22 0.9 1.7 0.00 0.00 0.00 50 1018.0
20260507145424 62 64 0.9 0.9 0.00 0.00 0.00 52 1017.9
20260507144921 62 34 0.9 1.7 0.00 0.00 0.00 57 1017.8
20260507144418 62 45 0.9 0.9 0.00 0.00 0.00 54 1017.8
20260507143915 61 63 0.0 0.9 0.00 0.00 0.00 57 1017.9
20260507143412 60 41 0.9 0.9 0.00 0.00 0.00 64 1017.9
20260507142908 60 37 0.9 1.7 0.00 0.00 0.00 61 1018.0
20260507142404 59 46 0.9 0.9 0.00 0.00 0.00 59 1017.8
20260507141902 59 53 0.0 0.0 0.00 0.00 0.00 64 1017.9
20260507141358 58 50 0.0 0.9 0.00 0.00 0.00 63 1018.1
20260507140854 57 42 0.9 1.7 0.00 0.00 0.00 65 1018.0
20260507140351 57 67 0.0 0.9 0.00 0.00 0.00 69 1018.2
20260507135849 56 40 0.0 0.9 0.00 0.00 0.00 72 1017.9
20260507135346 55 63 0.0 0.0 0.00 0.00 0.00 72 1017.7
20260507134843 55 50 0.0 0.0 0.00 0.00 0.00 74 1017.6
20260507134339 54 51 0.0 0.9 0.00 0.00 0.00 75 1017.7
20260507133835 54 48 0.0 0.0 0.00 0.00 0.00 77 1017.7
20260507133331 53 61 0.9 0.9 0.00 0.00 0.00 78 1017.8
20260507132830 53 82 0.9 0.9 0.00 0.00 0.00 82 1017.7
20260507132325 52 49 0.0 0.0 0.00 0.00 0.00 84 1017.8
20260507131823 51 42 0.0 0.0 0.00 0.00 0.00 86 1017.8
20260507131319 51 53 0.0 0.0 0.00 0.00 0.00 91 1017.7
20260507130816 50 53 0.0 0.0 0.00 0.00 0.00 97 1017.8
20260507130314 50 50 0.0 0.0 0.00 0.00 0.00 99 1017.6
20260507125813 49 52 0.0 0.0 0.00 0.00 0.00 99 1017.7
20260507125309 49 34 1.7 1.7 0.00 0.00 0.00 99 1017.6
20260507124806 49 51 0.0 0.0 0.00 0.00 0.00 99 1017.4
20260507124303 48 54 0.0 0.0 0.00 0.00 0.00 99 1017.5
20260507123801 48 51 0.0 0.0 0.00 0.00 0.00 99 1017.5
20260507123259 48 48 0.0 0.0 0.00 0.00 0.00 99 1017.3
20260507122754 47 48 0.0 0.0 0.00 0.00 0.00 99 1017.3
20260507122249 47 47 0.0 0.0 0.00 0.00 0.00 99 1017.3
20260507121746 47 45 0.0 0.9 0.00 0.00 0.00 99 1017.1
20260507121242 46 48 0.0 0.0 0.00 0.00 0.00 99 1017.1
20260507120738 46 48 0.0 0.0 0.00 0.00 0.00 99 1017.2
20260507120235 46 48 0.0 0.0 0.00 0.00 0.00 99 1017.0
20260507115731 45 48 0.0 0.0 0.00 0.00 0.00 99 1016.9
20260507115227 45 48 0.0 0.0 0.00 0.00 0.00 99 1017.0
20260507114723 44 48 0.0 0.0 0.00 0.00 0.00 99 1017.0
20260507114221 44 48 0.0 0.0 0.00 0.00 0.00 99 1016.6
20260507113718 44 48 0.0 0.0 0.00 0.00 0.00 99 1016.7
20260507113215 44 48 0.0 0.0 0.00 0.00 0.00 99 1016.7
20260507112712 44 48 0.0 0.0 0.00 0.00 0.00 99 1016.7
20260507112209 44 48 0.0 0.0 0.00 0.00 0.00 99 1016.7
20260507111706 44 48 0.0 0.0 0.00 0.00 0.00 99 1016.6
20260507111203 44 48 0.0 0.0 0.00 0.00 0.00 99 1016.4
20260507110659 44 48 0.0 0.0 0.00 0.00 0.00 99 1016.7
20260507110156 44 48 0.0 0.0 0.00 0.00 0.00 99 1016.7
20260507105653 44 48 0.0 0.0 0.00 0.00 0.00 99 1016.4
20260507105149 44 48 0.0 0.0 0.00 0.00 0.00 99 1016.5
20260507104646 45 48 0.0 0.0 0.00 0.00 0.00 99 1016.6
20260507104142 45 48 0.0 0.0 0.00 0.00 0.00 99 1016.6
20260507103638 45 48 0.0 0.0 0.00 0.00 0.00 99 1016.6
20260507103136 45 48 0.0 0.0 0.00 0.00 0.00 99 1016.5
20260507102632 45 48 0.0 0.0 0.00 0.00 0.00 99 1016.6
20260507102128 45 48 0.0 0.0 0.00 0.00 0.00 99 1016.6
20260507101624 45 48 0.0 0.0 0.00 0.00 0.00 99 1016.4
20260507101120 45 48 0.0 0.0 0.00 0.00 0.00 99 1016.5
20260507100618 46 48 0.0 0.0 0.00 0.00 0.00 99 1016.4
20260507100116 46 48 0.0 0.0 0.00 0.00 0.00 99 1016.5
20260507095613 46 48 0.0 0.0 0.00 0.00 0.00 99 1016.4
20260507095110 46 48 0.0 0.0 0.00 0.00 0.00 99 1016.3
20260507094606 46 48 0.0 0.0 0.00 0.00 0.00 99 1016.3
20260507094103 46 48 0.0 0.0 0.00 0.00 0.00 99 1016.5
20260507093600 46 48 0.0 0.0 0.00 0.00 0.00 99 1016.6
20260507093059 46 48 0.0 0.0 0.00 0.00 0.00 99 1016.4
20260507092555 46 48 0.0 0.0 0.00 0.00 0.00 99 1016.3
20260507092052 46 48 0.0 0.0 0.00 0.00 0.00 99 1016.1
20260507091549 46 48 0.0 0.0 0.00 0.00 0.00 99 1016.0
20260507091045 46 48 0.0 0.0 0.00 0.00 0.00 99 1016.3
20260507090541 46 48 0.0 0.0 0.00 0.00 0.00 99 1015.9
20260507090038 46 48 0.0 0.0 0.00 0.00 0.00 99 1015.6
20260507085535 46 48 0.0 0.0 0.00 0.00 0.00 99 1015.7
20260507085031 46 48 0.0 0.0 0.00 0.00 0.00 99 1015.6
20260507084528 46 48 0.0 0.0 0.00 0.00 0.00 99 1015.7
20260507084025 47 48 0.0 0.0 0.00 0.00 0.00 99 1015.7
20260507083521 47 48 0.0 0.0 0.00 0.00 0.00 99 1015.7
20260507083019 47 48 0.0 0.0 0.00 0.00 0.00 99 1015.8
20260507082514 47 48 0.0 0.0 0.00 0.00 0.00 99 1015.7
20260507082011 47 48 0.0 0.0 0.00 0.00 0.00 99 1015.8
20260507081507 47 48 0.0 0.0 0.00 0.00 0.00 99 1015.8
20260507081004 47 48 0.0 0.0 0.00 0.00 0.00 99 1015.6
20260507080500 47 48 0.0 0.0 0.00 0.00 0.00 99 1015.6
20260507075955 48 48 0.0 0.0 0.00 0.00 0.00 99 1015.8
20260507075452 48 48 0.0 0.0 0.00 0.00 0.00 99 1015.7
20260507074948 48 48 0.0 0.0 0.00 0.00 0.00 99 1016.0
20260507074445 48 48 0.0 0.0 0.00 0.00 0.00 99 1015.9
20260507073944 48 48 0.0 0.0 0.00 0.00 0.00 99 1016.0
20260507073439 49 48 0.0 0.0 0.00 0.00 0.00 99 1015.8
20260507072936 49 48 0.0 0.0 0.00 0.00 0.00 99 1015.7
20260507072434 49 48 0.0 0.0 0.00 0.00 0.00 99 1015.7
20260507071931 49 48 0.0 0.0 0.00 0.00 0.00 99 1015.6
20260507071428 49 48 0.0 0.0 0.00 0.00 0.00 99 1015.8
20260507070924 49 48 0.0 0.0 0.00 0.00 0.00 99 1015.9
20260507070422 49 48 0.0 0.0 0.00 0.00 0.00 99 1015.8
20260507065919 50 48 0.0 0.0 0.00 0.00 0.00 99 1015.7
20260507065416 50 48 0.0 0.0 0.00 0.00 0.00 99 1015.6
20260507064913 50 48 0.0 0.0 0.00 0.00 0.00 99 1015.8
20260507064411 50 48 0.0 0.0 0.00 0.00 0.00 99 1015.7
20260507063908 50 48 0.0 0.0 0.00 0.00 0.00 99 1015.6
20260507063406 51 48 0.0 0.0 0.00 0.00 0.00 99 1015.8
20260507062902 50 48 0.0 0.0 0.00 0.00 0.00 99 1015.8
20260507062359 50 48 0.0 0.0 0.00 0.00 0.00 99 1015.8
20260507061857 50 48 0.0 0.0 0.00 0.00 0.00 99 1015.9
20260507061355 50 48 0.0 0.0 0.00 0.00 0.00 99 1015.8
20260507060853 50 48 0.0 0.0 0.00 0.00 0.00 99 1015.8
20260507060349 50 48 0.0 0.0 0.00 0.00 0.00 99 1015.9
20260507055846 50 48 0.0 0.0 0.00 0.00 0.00 99 1016.1
20260507055341 51 48 0.0 0.0 0.00 0.00 0.00 99 1016.0
20260507054838 51 48 0.0 0.0 0.00 0.00 0.00 99 1015.9
20260507054334 51 48 0.0 0.0 0.00 0.00 0.00 99 1015.9
20260507053831 51 48 0.0 0.0 0.00 0.00 0.00 99 1016.1
20260507053329 51 48 0.0 0.0 0.00 0.00 0.00 99 1015.9
20260507052828 51 48 0.0 0.0 0.00 0.00 0.00 99 1016.1
20260507052324 51 48 0.0 0.0 0.00 0.00 0.00 99 1015.9
20260507051822 51 48 0.0 0.0 0.00 0.00 0.00 99 1015.8
20260507051319 51 48 0.0 0.0 0.00 0.00 0.00 99 1015.9
20260507050816 50 48 0.0 0.0 0.00 0.00 0.00 99 1015.9
20260507050312 50 48 0.0 0.0 0.00 0.00 0.00 99 1015.8
20260507045809 50 48 0.0 0.0 0.00 0.22 0.22 99 1015.8
20260507045307 50 48 0.0 0.0 0.00 0.22 0.22 99 1015.9
20260507044803 50 48 0.0 0.0 0.00 0.22 0.22 99 1015.7
20260507044259 50 48 0.0 0.0 0.00 0.22 0.22 99 1015.8
20260507043755 50 48 0.0 0.0 0.00 0.22 0.22 99 1015.9
20260507043252 50 48 0.0 0.0 0.00 0.22 0.22 99 1015.9
20260507042748 50 48 0.0 0.0 0.00 0.22 0.22 99 1015.9
20260507042243 50 48 0.0 0.0 0.00 0.22 0.22 99 1016.0
20260507041742 50 48 0.0 0.0 0.00 0.22 0.22 99 1016.3
20260507041238 50 48 0.0 0.0 0.00 0.22 0.22 99 1016.1
20260507040735 50 48 0.0 0.0 0.00 0.22 0.22 99 1016.1
20260507040231 50 48 0.0 0.0 0.00 0.22 0.22 99 1016.0
20260507035727 51 48 0.0 0.0 0.00 0.22 0.22 99 1015.9
20260507035223 51 48 0.0 0.0 0.00 0.22 0.22 99 1015.9
20260507034720 51 48 0.0 0.0 0.00 0.22 0.22 99 1016.1
20260507034217 51 48 0.0 0.0 0.00 0.22 0.22 99 1015.8
20260507033716 51 48 0.0 0.0 0.00 0.22 0.22 99 1015.9
20260507033213 51 48 0.0 0.0 0.00 0.22 0.22 99 1016.1
20260507032710 51 48 0.0 0.0 0.00 0.22 0.22 99 1015.8
20260507032206 51 48 0.0 0.0 0.00 0.22 0.22 99 1016.0
20260507031703 52 48 0.0 0.0 0.00 0.22 0.22 99 1015.9
20260507031159 52 48 0.0 0.0 0.00 0.22 0.22 99 1015.7
20260507030656 52 48 0.0 0.0 0.00 0.22 0.22 99 1015.3
20260507030154 52 48 0.0 0.0 0.00 0.22 0.22 99 1015.5
20260507025651 52 48 0.0 0.0 0.00 0.22 0.22 98 1015.4
20260507025148 52 48 0.0 0.0 0.00 0.22 0.22 98 1015.3
20260507024646 52 48 0.0 0.0 0.00 0.22 0.22 98 1015.2
20260507024143 52 48 0.0 0.0 0.00 0.22 0.22 98 1015.2
20260507023638 53 48 0.0 0.0 0.00 0.22 0.22 98 1015.4
20260507023136 53 48 0.0 0.0 0.00 0.22 0.22 98 1014.9
20260507022633 53 48 0.0 0.0 0.00 0.22 0.22 98 1015.0
20260507022128 53 48 0.0 0.0 0.00 0.22 0.22 98 1015.5
20260507021625 53 48 0.0 0.0 0.00 0.22 0.22 98 1015.5
20260507021120 53 48 0.0 0.0 0.00 0.22 0.22 98 1015.6
20260507020619 53 48 0.0 0.0 0.00 0.22 0.22 98 1015.6
20260507020115 53 48 0.0 0.0 0.00 0.22 0.22 98 1015.5
20260507015613 53 48 0.0 0.0 0.00 0.22 0.22 98 1015.2
20260507015110 53 48 0.0 0.0 0.00 0.22 0.22 98 1015.1
20260507014607 53 48 0.0 0.0 0.00 0.22 0.22 98 1015.2
20260507014102 53 48 0.0 0.0 0.00 0.22 0.22 98 1015.2
20260507013559 53 48 0.0 0.0 0.00 0.22 0.22 97 1015.1
20260507013057 53 48 0.0 0.0 0.00 0.22 0.22 97 1015.4
20260507012554 53 48 0.0 0.0 0.00 0.22 0.22 97 1015.6
20260507012049 53 48 0.0 0.0 0.00 0.22 0.22 97 1015.3
20260507011548 54 48 0.0 0.0 0.00 0.22 0.22 97 1015.4
20260507011044 54 48 0.0 0.0 0.00 0.22 0.22 97 1015.4
20260507010538 54 48 0.0 0.0 0.00 0.22 0.22 97 1015.4
20260507010034 54 48 0.0 0.0 0.00 0.22 0.22 97 1015.7
20260507005533 54 48 0.0 0.0 0.00 0.22 0.22 97 1015.4
20260507005028 54 48 0.0 0.0 0.00 0.22 0.22 96 1015.6
20260507004526 54 48 0.0 0.0 0.00 0.22 0.22 96 1015.6
20260507004023 54 48 0.0 0.0 0.00 0.22 0.22 96 1015.6
20260507003518 54 48 0.0 0.0 0.00 0.22 0.22 96 1015.8
20260507003014 54 48 0.0 0.0 0.00 0.22 0.22 96 1015.8
20260507002510 54 48 0.0 0.0 0.00 0.22 0.22 96 1015.7
20260507002007 54 48 0.0 0.0 0.00 0.22 0.22 96 1015.6
20260507001503 54 48 0.0 0.0 0.00 0.22 0.22 96 1015.8
20260507001001 54 47 0.0 0.0 0.00 0.22 0.22 96 1015.2
20260507000456 54 47 0.0 0.0 0.00 0.22 0.22 95 1015.2
20260506235952 54 47 0.0 0.0 0.00 0.22 0.22 95 1015.0
20260506235450 54 47 0.0 0.0 0.00 0.22 0.22 96 1014.9
20260506234945 55 46 0.0 0.0 0.00 0.22 0.22 96 1014.8
20260506234443 55 53 0.9 0.9 0.00 0.22 0.22 96 1014.4
20260506233940 55 55 0.0 0.0 0.00 0.22 0.22 96 1014.0
20260506233437 55 55 0.0 0.0 0.00 0.22 0.22 96 1014.2
20260506232933 55 55 0.0 0.0 0.00 0.22 0.22 96 1013.8
20260506232430 55 55 0.0 0.0 0.00 0.22 0.22 96 1014.1
20260506231925 55 55 0.0 0.0 0.00 0.22 0.22 96 1014.1
20260506231423 55 55 0.0 0.0 0.00 0.22 0.22 96 1013.8
20260506230920 55 55 0.0 0.0 0.00 0.22 0.22 96 1013.6
20260506230417 54 55 0.0 0.0 0.00 0.22 0.22 96 1013.3
20260506225913 54 55 0.0 0.0 0.00 0.22 0.22 95 1013.3
20260506225411 54 55 0.0 0.0 0.00 0.22 0.22 95 1013.2
20260506224908 54 56 0.0 0.0 0.00 0.22 0.22 95 1013.2
20260506224405 55 54 0.0 0.0 0.00 0.22 0.22 95 1013.6
20260506223901 55 50 0.0 0.0 0.00 0.22 0.22 96 1013.8
20260506223356 55 45 0.0 0.0 0.00 0.22 0.22 96 1013.7
20260506222854 55 43 0.0 0.0 0.00 0.22 0.22 95 1013.9
20260506222349 55 47 0.0 0.0 0.00 0.22 0.22 95 1013.8
20260506221847 55 47 0.0 0.0 0.05 0.22 0.22 95 1014.4
20260506221344 55 46 0.0 0.0 0.12 0.22 0.22 95 1015.0
20260506220842 55 46 0.0 0.0 0.07 0.21 0.21 94 1014.9
20260506220337 55 45 0.0 0.0 0.07 0.21 0.21 94 1015.0
20260506215834 55 49 0.0 0.0 0.00 0.20 0.20 94 1014.8
20260506215330 55 40 0.0 0.0 0.00 0.20 0.20 94 1014.8
20260506214826 55 40 0.0 0.0 0.00 0.20 0.20 94 1014.8
20260506214323 55 40 0.0 0.0 0.00 0.20 0.20 93 1014.8
20260506213821 55 40 0.0 0.0 0.00 0.20 0.20 93 1014.7
20260506213318 55 40 0.0 0.0 0.00 0.20 0.20 93 1014.7
20260506212816 55 40 0.0 0.0 0.00 0.20 0.20 93 1014.6
20260506212311 55 38 0.0 0.0 0.00 0.20 0.20 93 1014.7
20260506211806 56 47 0.0 0.0 0.00 0.20 0.20 94 1014.5
20260506211303 55 46 0.0 0.0 0.00 0.20 0.20 94 1014.6
20260506210801 55 47 0.0 0.0 0.05 0.20 0.20 94 1014.7
20260506210257 55 47 0.0 0.0 0.05 0.20 0.20 94 1014.5
20260506205754 55 47 0.0 0.0 0.07 0.19 0.19 94 1014.6
20260506205250 55 47 0.0 0.0 0.07 0.19 0.19 94 1014.8
20260506204746 55 47 0.0 0.0 0.05 0.18 0.18 93 1014.5
20260506204244 55 47 0.0 0.0 0.05 0.18 0.18 92 1014.9
20260506203742 55 47 0.0 0.0 0.00 0.17 0.17 91 1015.0
20260506203239 55 47 0.0 0.0 0.07 0.17 0.17 91 1015.0
20260506202736 55 47 0.0 0.0 0.07 0.17 0.17 91 1014.8
20260506202232 55 46 0.0 0.0 0.00 0.16 0.16 91 1015.0
20260506201729 55 46 0.0 0.0 0.00 0.16 0.16 91 1015.1
20260506201226 56 46 0.0 0.0 0.00 0.16 0.16 92 1014.9
20260506200723 56 46 0.0 0.0 0.05 0.16 0.16 91 1014.7
20260506200220 56 46 0.0 0.0 0.05 0.16 0.16 91 1014.5